Regional Weather Roundup
Issued by NWS

Home | Current Version | Previous Version | Text Only | Print | Product List | Glossary Off
Versions: 1 2 3 4 5 6 7 8 9 10 11 12 13 14 15 16 17 18 19 20 21 22 23 24 25 26 27 28 29 30 31 32 33 34 35 36 37 38 39 40 41 42 43 44 45 46 47 48 49 50

012
ASUS43 KMPX 290410
RWRMN
WEATHER ROUNDUP FOR MINNESOTA
NATIONAL WEATHER SERVICE TWIN CITIES/CHANHASSEN MN
1100 PM CDT WED SEP 28 2016


NOTE: "FAIR" INDICATES FEW OR NO CLOUDS BELOW 12,000 FEET WITH NO
SIGNIFICANT WEATHER AND/OR OBSTRUCTIONS TO VISIBILITY. N/A MEANS
CURRENT SKY AND/OR WEATHER CONDITIONS ARE NOT AVAILABLE.

MNZ060>063-068>070-290500-
   Twin Cities Metro

CITY           SKY/WX    TMP DP  RH WIND       PRES   REMARKS
TWIN CITIES    CLEAR     54  48  80 N7        30.36R
ST PAUL        CLEAR     52  48  86 NW3       30.37R
CRYSTAL        CLEAR     52  46  80 N3        30.36R
BLAINE         CLEAR     54  52  94 NE5       30.37R
LAKEVILLE      CLEAR     52  48  87 N3        30.36R
EDEN PRAIRIE   CLEAR     55  49  80 N7        30.35R
LAKEVILLE      CLEAR     52  48  87 N3        30.36R
SOUTH ST PAUL  CLEAR     54  48  82 N6        30.36R
LAKE ELMO      FAIR      52  50  93 N5        30.37R
$$
MNZ001>005-007-008-013>017-022>024-027-028-290500-
   Northwest Minnesota

CITY           SKY/WX    TMP DP  RH WIND       PRES   REMARKS
BEMIDJI        CLOUDY    52  47  83 CALM      30.42R
HALLOCK        CLEAR     46  45  93 CALM      30.42R
ROSEAU         CLEAR     48  43  81 CALM      30.42S
WARROAD        PTCLDY    46  45  93 CALM      30.43R
THIEF RVR FALL PTCLDY    52  47  83 SE3       30.42S
CROOKSTON      CLEAR     50  46  87 SE6       30.42R
FOSSTON        PTCLDY    45  43  93 CALM      30.43R
DETROIT LAKES  CLOUDY    52  46  82 E5        30.42R
MOORHEAD       CLEAR     48  45  87 E3        30.41R
PARK RAPIDS    CLOUDY    56  43  61 E3        30.41R
MAHNOMEN       FAIR      44  43  95 E7        30.41S
$$
MNZ006-009>011-018-025>026-290500-
   North Central Minnesota

CITY           SKY/WX    TMP DP  RH WIND       PRES   REMARKS
BAUDETTE       CLOUDY    52  48  86 SE5       30.42R
FLAG ISLAND    CLOUDY    55  50  82 CALM      30.41R
INTL FALLS     CLOUDY    54  49  83 CALM      30.42R
WASKISH        CLOUDY    52  48  87 CALM      30.42S
BIG FORK       CLOUDY    54  48  82 CALM      30.42R
LONGVILLE      CLOUDY    52  50  93 CALM      30.41R
GRAND RAPIDS   CLOUDY    52  50  93 CALM      30.43R
CRANE LAKE     CLOUDY    52  50  93 CALM      30.44R
ORR            CLOUDY    52  48  87 CALM      30.40S
COOK           CLOUDY    54  50  87 CALM      30.42R
WALKER         CLOUDY    53  47  80 CALM      30.41S
$$
MNZ012-019>021-037-290500-
   Northeast Minnesota

CITY           SKY/WX    TMP DP  RH WIND       PRES   REMARKS
DULUTH         CLOUDY    53  50  89 CALM      30.40R
ELY            CLOUDY    52  50  93 CALM      30.41R
HIBBING        CLOUDY    52  49  89 CALM      30.41R
EVELETH        CLOUDY    54  49  85 CALM      30.42R
DULUTH HARBOR  CLOUDY    55  54  94 N6        30.41R
TWO HARBORS    CLOUDY    55  50  82 CALM      30.38S
SILVER BAY     CLOUDY    52  52 100 CALM      30.38S
GRAND MARAIS     N/A     56  50  80 CALM      30.39R
G MARAIS ARPRT CLOUDY    50  45  81 N6        30.41S
$$
MNZ029>031-032-039>041-046>048-054>057-064-290500-
   West Central Minnesota

CITY           SKY/WX    TMP DP  RH WIND       PRES   REMARKS
FERGUS FALLS   CLEAR     50  45  81 CALM      30.43R
MORRIS         CLOUDY    54  48  82 E7        30.39R
ALEXANDRIA     CLOUDY    55  46  71 NE5       30.41S
ELBOW LAKE     FAIR      51  47  84 NE7       30.40S
WADENA         CLOUDY    54  46  76 CALM      30.41R
GLENWOOD       CLEAR     52  46  82 NE3       30.40S
BENSON         MOCLDY    52  45  76 E5        30.40R
ORTONVILLE     CLEAR     48  45  87 MISG      30.39R
MADISON        MOCLDY    52  48  87 E6        30.39R
WILLMAR        FAIR      52  46  82 NE6       30.40R
$$
MNZ033>034-036-042>043-049>051-058-059-290500-
   Central Minnesota

CITY           SKY/WX    TMP DP  RH WIND       PRES   REMARKS
ST CLOUD       CLOUDY    54  49  83 N3        30.38R
SAUK CENTRE    CLOUDY    52  46  79 N5        30.40R
PAYNESVILLE    CLOUDY    48  49 100 CALM      30.40R
AITKIN         CLOUDY    54  48  82 CALM      30.39R
PINE RIVER     CLOUDY    54  48  82 N3        30.43R
BRAINERD       CLOUDY    54  49  83 N3        30.41R
STAPLES        CLOUDY    54  46  76 CALM      30.40S
LONG PRAIRIE   CLOUDY    54  45  71 CALM      30.41R
LITTLE FALLS   CLOUDY    54  45  71 CALM      30.40R
LITCHFIELD     CLOUDY    55  48  76 NE5       30.39R
BUFFALO        CLEAR     53  48  83 N6        30.39R
MAPLE LAKE     CLEAR     52  49  89 N3        30.39R
HUTCHINSON     CLEAR     51  48  91 N6        30.38R
$$
MNZ037-044-045-052-053-290500-
   East Central Minnesota

CITY           SKY/WX    TMP DP  RH WIND       PRES   REMARKS
PRINCETON        N/A     52  48  87 CALM      30.39R
MORA           CLEAR     50  46  87 CALM      30.41R
CAMBRIDGE      CLEAR     54  45  71 CALM      30.37R
MOOSE LAKE     CLOUDY    52  48  87 CALM      30.38R
HINCKLEY       FAIR      48  48 100 N3        30.40R
CLOQUET        CLOUDY    52  48  87 CALM      30.40R
MCGREGOR       CLOUDY    52  50  93 CALM      30.41R
$$
MNZ071>073-080-081-089-090-097-098-290500-
   Southwest Minnesota

CITY           SKY/WX    TMP DP  RH WIND       PRES   REMARKS
MONTEVIDEO     PTCLDY    46  43  87 CALM      30.40R
GRANITE FALLS  CLEAR     49  46  87 N5        30.40R
CANBY          CLEAR     46  44  94 CALM      30.40R
MARSHALL       CLEAR     50  46  86 NE5       30.38R
REDWOOD FALLS  CLEAR     54  47  77 VRB3      30.37R
OLIVIA         PTCLDY    52  46  82 N5        30.37R
PIPESTONE      CLEAR     48  45  87 NE3       30.37R
WINDOM         CLEAR     48  46  93 N5        30.37R
WORTHINGTON    CLEAR     49  45  86 NE5       30.37R
JACKSON        CLEAR     46  43  87 N5        30.37R
TRACY          CLEAR     49  47  92 N3        30.38R
SLAYTON        CLEAR     50  43  76 CALM      30.37R
$$
MNZ065>067-074>077-082>085-091>093-290500-
   South Central Minnesota

CITY           SKY/WX    TMP DP  RH WIND       PRES   REMARKS
MANKATO        CLEAR     55  49  80 NE10      30.36R
NEW ULM        CLEAR     50  46  87 CALM      30.37R
ST JAMES       CLEAR     48  46  93 CALM      30.37R
FAIRMONT       CLEAR     50  47  89 N8        30.36R
GLENCOE        CLEAR     53  50  90 CALM      30.37R
FARIBAULT      CLEAR     52  48  87 N6        30.35R
OWATONNA       CLEAR     54  48  82 N6        30.34R
WASECA         MOCLDY    52  46  82 N6        30.36R
ALBERT LEA     CLOUDY    54  50  87 N6        30.33S
$$
MNZ078>079-086>088-094>096-290500-
   Southeast Minnesota

CITY           SKY/WX    TMP DP  RH WIND       PRES   REMARKS
ROCHESTER      CLEAR     54  50  86 NE13      30.33R
RED WING       CLEAR     55  48  76 NE3       30.33R
DODGE CENTER   PTCLDY    54  48  82 N6        30.33R
WINONA         CLOUDY    55  50  82 N3        30.32R
AUSTIN         MOCLDY    55  48  76 N6        30.32R
PRESTON        PTCLDY    53  49  86 N7        30.32R
$$
ABBREVIATIONS USED IN REMARKS
   TC - TEMPERATURES IN CELSIUS
  WCI - WIND CHILL INDEX
   HX - HEAT INDEX
  VSB - VISIBILITY
$$




USA.gov is the U.S. government's official web portal to all federal, state and local government web resources and services.